| time (UTC) | temp F | wind direction | speed MPH | gust MPH | rain 1hr in | rain 24hr in | rain mn in | humidity % | barometer mb |
| 20260906113114 | 78 | 0 | 0.0 | 9.0 | 0.00 | 0.00 | 0.00 | 64 | |
| 20260906110111 | 79 | 0 | 0.0 | 9.0 | 0.00 | 0.00 | 0.00 | 63 | |
| 20260906103107 | 79 | 0 | 0.0 | 8.0 | 0.00 | 0.00 | 0.00 | 62 | |
| 20260906100104 | 78 | 0 | 0.0 | 7.0 | 0.00 | 0.00 | 0.00 | 61 | |
| 20260906090057 | 78 | 0 | 0.0 | 7.0 | 0.00 | 0.00 | 0.00 | 58 | |
| 20260906083054 | 77 | 0 | 0.0 | 7.0 | 0.00 | 0.00 | 0.00 | 57 | |
| 20260906080051 | 77 | 0 | 0.0 | 7.0 | 0.00 | 0.00 | 0.00 | 57 | |
| 20260906073047 | 77 | 0 | 0.0 | 5.0 | 0.00 | 0.00 | 0.00 | 58 | |
| 20260906070043 | 76 | 0 | 0.0 | 4.0 | 0.00 | 0.00 | 0.00 | 60 | |
| 20260906063039 | 75 | 0 | 0.0 | 1.0 | 0.00 | 0.00 | 0.00 | 61 | |
| 20260906060035 | 73 | 0 | 0.0 | 1.0 | 0.00 | 0.00 | 0.00 | 63 | |
| 20260906053031 | 71 | 0 | 0.0 | 3.0 | 0.00 | 0.00 | 0.00 | 71 | |
| 20260906050027 | 68 | 0 | 0.0 | 5.0 | 0.00 | 0.00 | 0.00 | 79 | |
| 20260906043022 | 64 | 0 | 0.0 | 6.0 | 0.00 | 0.00 | 0.00 | 83 | |
| 20260906040018 | 61 | 0 | 0.0 | 7.0 | 0.00 | 0.00 | 0.00 | 85 | |
| 20260906033014 | 60 | 0 | 0.0 | 7.0 | 0.00 | 0.00 | 0.00 | 89 | |
| 20260906030010 | 32 | 0 | 0.0 | 0.0 | 0.00 | 0.00 | 0.00 | 100 | |
| 20260906023007 | 60 | 0 | 0.0 | 7.0 | 0.00 | 0.00 | 0.00 | 92 | |
| 20260906020004 | 32 | 0 | 0.0 | 0.0 | 0.00 | 0.00 | 0.00 | 100 | |
| 20260906013000 | 60 | 0 | 0.0 | 7.0 | 0.00 | 0.00 | 0.00 | 93 | |
| 20260906005957 | 61 | 0 | 0.0 | 7.0 | 0.00 | 0.00 | 0.00 | 93 | |
| 20260906002953 | 61 | 0 | 0.0 | 7.0 | 0.00 | 0.00 | 0.00 | 95 | |
| 20260905235950 | 61 | 0 | 0.0 | 7.0 | 0.00 | 0.00 | 0.00 | 95 | |
| 20260905232947 | 61 | 0 | 0.0 | 7.0 | 0.00 | 0.00 | 0.00 | 95 | |
| 20260905225944 | 62 | 0 | 0.0 | 7.0 | 0.00 | 0.00 | 0.00 | 95 | |
| 20260905222940 | 62 | 0 | 0.0 | 6.0 | 0.00 | 0.00 | 0.00 | 95 | |
| 20260905215937 | 62 | 0 | 0.0 | 6.0 | 0.00 | 0.00 | 0.00 | 95 | |
| 20260905212934 | 63 | 0 | 0.0 | 6.0 | 0.00 | 0.00 | 0.00 | 96 | |
| 20260905205930 | 63 | 0 | 0.0 | 6.0 | 0.00 | 0.00 | 0.00 | 96 | |
| 20260905202927 | 64 | 0 | 0.0 | 6.0 | 0.00 | 0.00 | 0.00 | 96 | |
| 20260905195924 | 64 | 0 | 0.0 | 6.0 | 0.00 | 0.00 | 0.00 | 96 | |
| 20260905192920 | 65 | 0 | 0.0 | 5.0 | 0.00 | 0.00 | 0.00 | 97 | |
| 20260905185917 | 66 | 0 | 0.0 | 5.0 | 0.00 | 0.00 | 0.00 | 96 | |
| 20260905182914 | 68 | 0 | 0.0 | 5.0 | 0.00 | 0.00 | 0.00 | 92 | |
| 20260905175910 | 69 | 0 | 0.0 | 4.0 | 0.00 | 0.00 | 0.00 | 89 | |
| 20260905172907 | 70 | 0 | 0.0 | 3.0 | 0.00 | 0.00 | 0.00 | 90 | |
| 20260905165903 | 71 | 0 | 0.0 | 2.0 | 0.00 | 0.00 | 0.00 | 88 | |
| 20260905162901 | 72 | 0 | 0.0 | 2.0 | 0.00 | 0.00 | 0.00 | 87 | |
| 20260905155857 | 73 | 0 | 0.0 | 3.0 | 0.00 | 0.00 | 0.00 | 84 | |
| 20260905152853 | 75 | 0 | 0.0 | 4.0 | 0.00 | 0.00 | 0.00 | 80 | |
| 20260905145850 | 76 | 0 | 0.0 | 5.0 | 0.00 | 0.00 | 0.00 | 77 | |
| 20260905142847 | 77 | 0 | 0.0 | 6.0 | 0.00 | 0.00 | 0.00 | 75 | |
| 20260905135843 | 77 | 0 | 0.0 | 7.0 | 0.00 | 0.00 | 0.00 | 73 | |
| 20260905132840 | 78 | 0 | 0.0 | 7.0 | 0.00 | 0.00 | 0.00 | 71 | |
| 20260905125837 | 78 | 0 | 0.0 | 8.0 | 0.00 | 0.00 | 0.00 | 70 | |
| 20260905122833 | 78 | 0 | 0.0 | 8.0 | 0.00 | 0.00 | 0.00 | 72 | |
| 20260905115830 | 79 | 0 | 0.0 | 9.0 | 0.00 | 0.00 | 0.00 | 70 |